Location: Ahausen
(50.4985°N, 8.2722°E)
Time: 10:39:52
(UTC+00:00)

SPOT 3 Rocket - Pass Details

Date: 18 September 2020
Orbit: 780 x 794 km, 98.8° (Epoch: 25 October)

Event Time Altitude Azimuth Distance (km) Brightness Sun altitude
Exits shadow 20:03:39 30° 190° (S) 1,360 4.5 -23.3°
Maximum altitude 20:06:03 60° 258° (WSW) 897 3.9 -23.6°
Drops below altitude 10° 20:11:10 10° 338° (NNW) 2,346 6.8 -24.3°
Sets 20:13:32 0° 343° (NNW) 3,280 7.6 -24.6°
